DELTA 1 DEB, 7033

Orbit data source: Space-Track

DELTA 1 DEB, 7033 is space debris in SSO originally from a launch on Tue, 06 Nov 1973 UTC launched from the Air Force Western Test Range (AFWTR). Debris objects in space refer to the collection of defunct objects orbiting the Earth. Examples of debris include non-operational satellites, rocket bodies, and fragments generated from explosions, collisions, or faulty payload assembly.

Loading next visibility...
Identifier
7033, 1973-086Z
Orbit
SSO
Country
Flag of USUS
Related business
Manufacturer
Unknown
Mission
Spacecraft
Bus & Motor
Unknown
Mass
Unknown
Launch date (UTC)
1973-11-06 (52 years ago)
Launch vehicle
Unknown
Launch site
Air Force Western Test Range (AFWTR)
Object type
Payload
Rocket body
Debris
Shape & HBR
Unknown shape, 0.2 m
Radar Cross Section
Medium (>0.1 m² and <1 m²)

Expand to show TLE details & history
Last TLE update: 12 hours ago

TLE from 12 hours ago
0 DELTA 1 DEB
1  7033U 73086Z   25354.02570301  .00000022  00000-0  47359-3 0  9999
2  7033 101.6004  23.4945 0026231 283.0070 106.4288 12.41900409355257
Epoch: 2025-12-20T00:37Z
TLE epoch observation values (Epoch: 2025-12-20T00:37:00.740Z)
Latitude
29.10314°
Longitude
-81.14638°
Altitude
1,507.772 km
Speed
7.111 km/s
True Right ascension
01h 07m 51s
True Declination
28° 58' 16"
Sunlit
Object was in daylight at epoch
Visualization orbit readout
Latitude
Unknown
Longitude
Unknown
Altitude
Unknown
Speed
Unknown
Apparent Right ascension
Unknown
Apparent Declination
Unknown
Sunlit
N/A
Visualization observer readout
Local Sidereal Time
11:23:32
Azimuth
Unknown
Elevation
Unknown
Doppler factor
Unknown
Orbital elements
Apogee altitude
1,516.761 km
Perigee altitude
1,475.451 km
Semi-major axis
7,874.243 km
Eccentricity
0.00262
Inclination
101.6004°
RAAN
23.4945°
Arg. of periapsis
283.007°
True anomaly
106.71684°
Mean anomaly
106.4288°
Eccentric anomaly
106.57285°
Mean motion
3.1062 °/min
Orbital period
115.9 mins
BSTAR
0.00047359
Loading maneuver chart data...
Computing Atmospheric mass density...
Loading historical data...
Loading historical data...
Loading historical data...
Loading historical data...
Loading historical data...
Loading historical data...
Loading historical data...

Documentation

Showing up to 5 results
|